Overview Statistics Trail Chart Weather Telemetry Raw packets
 

This is the latest recevied weather packets stored in our database for station/object S51UL-6. If no packets are shown the sender has not sent any weather packets the latest 10 day(s).

<< 17 18 19 20 21 22 23 >>
Time Temp. Humidity Pressure Rain* Wind** Luminosity Snow
1788534945 31.67° C 36% 1017.1 hPa 0 mm - - -
1788534646 32.22° C 36% 1017.1 hPa 0 mm - - -
1788534346 32.22° C 36% 1017 hPa 1.02 mm - - -
1788534046 32.78° C 35% 1017.1 hPa 1.02 mm - - -
1788533753 32.78° C 35% 1017.1 hPa 1.02 mm - - -
1788533446 33.33° C 35% 1017.2 hPa 1.02 mm - - -
1788533146 33.33° C 35% 1017.3 hPa 1.02 mm - - -
1788532847 33.33° C 35% 1017.4 hPa 2.54 mm - - -
1788532546 33.89° C 35% 1017.4 hPa 2.54 mm - - -
1788531946 33.89° C 35% 1017.7 hPa 2.54 mm - - -
1788531647 33.89° C 35% 1017.7 hPa 2.54 mm - - -
1788531348 33.89° C 35% 1017.6 hPa 3.05 mm - - -
1788531046 34.44° C 35% 1017.9 hPa 2.03 mm - - -
1788530746 34.44° C 36% 1017.8 hPa 2.03 mm - - -
1788530446 34.44° C 35% 1017.8 hPa 2.03 mm - - -
1788530147 34.44° C 37% 1017.8 hPa 2.03 mm - - -
1788529847 34.44° C 36% 1017.9 hPa 2.03 mm - - -
1788529547 34.44° C 37% 1018 hPa 1.52 mm - - -
1788529247 34.44° C 37% 1017.9 hPa 0.51 mm - - -
1788528947 33.89° C 37% 1018 hPa 0.51 mm - - -
1788528646 33.89° C 37% 1018.1 hPa 1.02 mm - - -
1788528348 33.89° C 38% 1018.1 hPa 1.02 mm - - -
1788528048 33.89° C 38% 1018.3 hPa 1.52 mm - - -
1788527754 33.33° C 38% 1018.3 hPa 1.02 mm - - -
1788527447 33.33° C 36% 1018.3 hPa 1.02 mm - - -

* Rain latest hour (hover to see other rain measurements)
** Current wind speed in m/s (hover to see current wind gust speed)